Wind_Speed
15 15 16 16 16 16 16 16 16 16 16 16 15 15 15 15 15 15 15 15 16 17 17 18 19 19 19 19 19 19 20 20 21 21 23 23 24 25 25 26 26 26 26
15 15 16 16 17 17 17 17 17 17 17 17 17 16 16 16 16 17 17 17 17 17 18 18 19 19 20 20 19 20 20 21 21 22 23 23 24 25 25 24 24 25 26
16 16 16 17 17 18 18 18 18 18 18 18 17 17 17 17 18 18 19 18 18 19 19 19 19 20 20 20 21 21 21 21 21 22 22 23 24 24 25 25 26 26 26
17 17 18 18 19 19 20 20 20 19 19 19 19 18 19 19 19 20 20 20 19 19 20 21 21 21 21 22 22 22 22 22 22 23 24 25 25 26 26 26 26 26 27
18 18 19 19 20 21 21 22 21 20 20 20 20 20 20 20 20 21 21 20 20 20 21 21 22 22 22 22 23 22 22 22 23 24 25 25 26 26 26 26 27 27 28
19 19 20 20 21 22 22 22 22 22 21 22 21 21 21 22 22 21 21 20 21 21 22 22 23 23 23 22 22 23 23 23 24 24 24 25 26 26 27 27 28 28 27
21 21 20 20 21 22 22 22 23 23 23 23 23 23 23 23 23 23 23 22 22 23 23 23 23 23 22 22 22 23 23 22 22 22 23 24 25 26 27 27 28 28 28
22 23 23 22 22 22 23 23 24 24 24 24 24 24 23 23 24 24 23 23 23 23 24 23 23 24 24 23 23 22 22 23 23 24 24 25 26 26 26 27 27 28 28
23 23 23 23 23 23 24 24 24 25 25 25 25 24 24 23 24 24 23 23 23 23 23 23 23 24 24 24 23 23 24 24 24 25 25 26 26 26 26 27 28 28 29
25 24 25 25 25 25 25 25 26 26 26 25 25 25 24 24 23 24 24 24 23 24 24 24 24 25 25 25 24 25 25 25 25 26 26 26 27 27 27 27 28 28 29
26 26 26 26 26 26 27 26 27 26 26 25 25 25 24 24 23 23 24 24 24 25 25 25 24 25 25 25 25 25 26 26 26 26 26 26 26 27 28 28 28 29 29
27 27 27 27 27 28 28 27 27 26 26 25 25 25 25 25 24 24 25 25 26 26 25 25 25 25 25 26 26 26 27 27 27 27 27 27 27 28 28 29 29 29 29
29 29 29 28 29 29 28 27 27 27 27 26 26 26 25 25 25 26 26 26 27 26 26 26 26 26 26 27 27 27 27 27 28 28 28 28 27 28 28 28 29 29 29
30 30 30 30 30 29 29 28 27 27 27 26 27 26 26 25 26 27 27 27 27 27 26 26 26 26 27 27 27 28 28 28 28 28 28 28 28 28 29 29 29 29 29
32 31 31 31 30 30 29 29 29 28 28 28 28 27 27 26 26 26 26 26 27 27 27 27 27 27 28 28 28 28 28 28 29 29 29 29 29 29 30 30 30 31 30
31 31 31 30 30 30 30 30 30 29 29 28 28 28 28 28 27 27 27 27 27 27 27 27 28 27 28 28 29 29 29 30 30 30 30 30 30 30 31 31 31 31 32
32 31 31 31 30 30 30 30 30 30 29 29 29 28 28 27 26 27 27 27 27 28 28 28 28 28 28 29 29 30 30 31 31 31 31 31 31 31 31 31 32 32 32
32 31 31 30 30 31 30 30 30 30 29 29 28 28 27 27 27 27 27 28 28 29 29 29 29 30 30 30 30 31 31 31 31 31 31 31 31 32 31 32 32 32 32
31 31 31 31 32 32 32 32 31 30 29 29 28 28 27 28 28 28 28 29 29 30 30 30 30 31 31 31 31 32 32 32 32 31 31 32 32 32 32 32 32 32 32
31 31 32 32 32 33 32 31 31 29 29 28 28 28 28 28 29 30 29 29 30 30 30 31 31 31 31 32 33 33 32 32 32 32 31 31 32 32 32 32 32 31 31
31 32 32 32 32 32 32 30 30 29 28 28 28 29 30 30 30 30 30 29 30 30 31 31 32 32 32 32 33 33 33 32 32 32 32 31 31 31 31 31 31 31 31
31 31 32 32 32 32 32 31 30 30 30 29 29 29 29 30 30 30 30 30 30 31 31 32 32 32 32 32 33 33 32 32 31 31 31 31 31 31 31 32 32 32 31
31 32 32 32 32 32 32 32 31 31 30 30 30 30 30 29 30 30 30 30 31 32 32 32 32 32 32 32 32 32 32 31 31 31 31 31 31 32 32 32 32 31 31
31 31 31 31 32 32 32 32 32 31 30 30 30 30 30 30 31 31 31 31 32 32 32 32 32 33 32 32 31 31 31 31 30 30 31 31 31 31 31 31 31 31 31
29 30 29 29 30 31 31 31 31 31 30 30 30 30 30 30 30 30 31 31 32 32 32 32 32 32 32 32 31 31 30 30 30 30 30 31 31 31 31 31 31 31 30
28 29 29 29 30 30 31 31 31 31 30 30 30 30 30 30 30 31 31 31 31 31 32 32 32 32 32 31 31 31 31 30 30 31 30 30 31 31 31 31 30 30 30
Wind_Direction
346 344 343 343 343 341 340 338 337 335 334 332 330 325 318 312 310 308 305 302 300 299 297 297 298 297 297 293 289 287 285 283 282 282 282 283 284 285 283 281 282 284 283
339 339 339 338 339 339 338 335 333 332 331 330 330 326 322 317 312 310 306 303 302 302 301 300 299 298 295 295 293 291 289 288 286 287 286 286 288 287 285 284 285 285 285
331 331 332 333 333 333 331 331 330 328 326 325 325 325 323 320 315 313 309 303 301 301 301 301 300 300 298 296 297 295 293 290 288 288 289 289 288 289 287 286 286 285 285
324 324 326 328 329 328 327 326 326 326 324 321 320 320 321 320 317 314 311 307 302 301 302 301 301 300 299 296 295 296 295 292 290 290 290 290 289 288 288 288 287 287 287
319 322 322 323 323 324 324 323 321 321 320 318 316 316 317 318 317 315 311 307 304 303 303 304 303 302 301 299 297 294 293 292 291 290 290 290 290 289 289 288 288 287 288
313 315 315 318 320 321 321 321 321 320 319 317 315 314 314 315 315 315 311 308 305 305 306 306 306 304 302 303 300 296 294 294 293 291 290 290 290 290 289 289 290 288 288
308 313 312 314 317 321 322 322 322 320 319 318 315 313 312 313 314 313 309 308 306 304 304 305 305 307 306 305 302 300 298 297 296 295 294 294 294 293 292 292 291 289 291
308 311 311 310 312 315 317 319 319 319 319 319 318 314 313 313 313 313 312 310 307 305 304 304 304 306 306 305 305 304 305 304 301 299 297 296 294 295 294 295 294 293 293
303 305 308 310 311 313 314 314 316 317 317 317 317 316 314 312 312 313 312 311 309 307 307 306 304 305 306 307 306 305 305 303 302 299 297 296 295 294 295 295 295 295 296
300 302 304 306 309 310 312 312 313 314 314 315 316 315 314 312 312 313 313 311 308 307 306 305 305 305 305 305 304 304 303 303 301 299 298 297 296 296 296 295 295 296 296
297 299 301 303 306 308 310 311 312 312 313 314 314 313 313 312 312 312 312 311 309 307 307 306 305 306 305 304 304 304 304 303 303 301 299 298 298 298 298 297 296 297 298
293 295 297 299 302 304 305 306 308 310 311 312 312 311 311 313 312 311 311 309 308 307 306 305 305 305 304 303 303 304 305 304 303 302 301 300 300 299 299 299 299 299 298
290 292 294 295 298 301 303 303 305 307 310 311 311 312 310 312 312 311 310 309 308 307 305 305 306 306 305 305 304 304 304 304 303 304 304 303 302 302 302 302 301 301 300
288 290 291 292 294 297 299 300 302 304 307 310 312 311 310 309 310 310 310 311 310 307 306 306 308 307 307 306 305 304 304 304 303 304 304 305 305 305 305 304 304 303 302
288 288 288 290 291 294 296 297 298 300 302 305 309 310 310 310 310 309 310 310 310 309 308 308 309 309 309 308 306 305 304 304 303 303 304 305 304 304 304 303 303 303 303
287 288 288 289 292 293 294 294 295 297 299 302 304 306 307 308 309 308 308 309 309 310 309 309 309 309 309 308 308 306 305 306 305 304 303 303 304 304 303 303 302 302 302
284 285 286 288 291 293 293 293 294 295 297 299 300 302 305 306 307 307 307 307 307 308 309 309 309 309 309 308 308 308 308 308 308 306 304 304 304 304 303 302 302 302 302
281 283 285 287 291 293 294 294 294 294 296 297 298 299 302 303 305 306 306 307 307 308 308 309 309 309 309 308 308 309 308 308 308 306 305 304 303 304 303 303 303 303 302
279 281 283 286 289 291 292 293 293 294 296 296 296 297 299 301 303 303 304 305 306 307 307 308 309 309 309 309 309 309 308 307 307 306 304 303 303 303 303 303 302 302 302
280 281 282 284 287 290 292 293 293 294 295 296 297 298 298 299 301 301 303 304 305 306 306 307 307 308 309 309 308 308 307 307 306 305 304 304 303 303 303 302 302 301 302
279 281 283 284 287 290 292 295 297 297 296 296 297 297 298 299 300 301 302 303 304 304 305 306 307 307 307 307 307 307 307 307 307 305 304 304 303 303 303 303 303 302 301
280 281 283 284 286 289 292 294 296 296 296 296 295 296 297 299 300 301 303 304 304 304 305 306 309 310 309 308 307 307 307 308 307 307 306 305 304 304 304 304 304 303 302
280 281 282 284 286 288 290 292 293 294 295 295 295 296 297 298 300 301 302 303 304 304 306 308 309 311 310 309 307 307 308 308 308 308 307 306 305 305 305 305 305 305 303
281 283 285 285 286 288 289 290 291 291 294 294 294 295 296 298 300 301 301 302 302 304 305 307 309 310 311 310 309 309 309 309 309 308 308 307 307 306 306 305 305 305 303
281 282 285 287 288 289 290 289 290 290 290 292 293 294 296 298 300 301 301 301 303 305 307 308 309 309 309 309 309 309 310 310 309 309 309 308 308 307 307 306 305 304 303
282 284 285 286 287 288 288 288 289 289 290 292 294 295 296 297 298 300 301 302 304 305 307 308 308 308 308 308 308 308 309 309 309 310 310 309 309 309 308 307 306 305 304
Height
5894 5892 5890 5887 5885 5883 5881 5879 5877 5874 5872 5870 5868 5866 5864 5863 5862 5860 5859 5858 5856 5855 5853 5852 5850 5849 5847 5846 5845 5844 5843 5842 5841 5841 5840 5839 5838 5838 5837 5836 5835 5834 5833
5893 5891 5889 5886 5884 5882 5879 5877 5875 5873 5870 5868 5865 5863 5861 5860 5858 5857 5855 5854 5852 5851 5849 5847 5846 5844 5842 5841 5839 5838 5837 5836 5836 5835 5834 5833 5832 5831 5830 5829 5828 5827 5826
5891 5889 5887 5885 5882 5880 5877 5875 5873 5870 5868 5865 5863 5861 5859 5857 5855 5853 5851 5849 5848 5846 5845 5843 5842 5840 5838 5836 5835 5833 5832 5831 5830 5829 5828 5827 5826 5825 5823 5822 5821 5820 5819
5889 5887 5885 5882 5880 5877 5875 5873 5870 5868 5865 5863 5860 5858 5856 5853 5851 5849 5847 5845 5843 5842 5840 5839 5837 5835 5833 5831 5830 5828 5826 5825 5824 5823 5822 5820 5819 5818 5817 5815 5814 5812 5811
5886 5884 5882 5880 5877 5875 5872 5870 5867 5864 5862 5860 5857 5855 5852 5850 5847 5845 5843 5841 5839 5837 5836 5834 5832 5830 5828 5826 5824 5822 5821 5819 5818 5817 5815 5814 5812 5811 5809 5808 5806 5804 5803
5883 5881 5879 5876 5874 5872 5869 5866 5864 5861 5858 5856 5854 5851 5848 5846 5843 5841 5838 5836 5834 5833 5831 5829 5827 5824 5822 5820 5818 5817 5815 5813 5812 5810 5808 5807 5805 5804 5802 5801 5799 5797 5795
5879 5877 5874 5872 5870 5868 5865 5863 5860 5857 5854 5852 5849 5846 5844 5841 5839 5836 5834 5832 5830 5827 5826 5824 5822 5819 5817 5815 5813 5811 5809 5807 5806 5804 5802 5800 5798 5797 5795 5793 5791 5790 5788
5876 5874 5871 5869 5867 5864 5861 5859 5856 5853 5850 5848 5845 5842 5839 5836 5834 5831 5829 5827 5824 5822 5820 5818 5816 5814 5812 5810 5808 5805 5803 5801 5799 5798 5796 5794 5792 5789 5788 5786 5784 5782 5780
5872 5870 5867 5865 5862 5860 5857 5855 5852 5849 5846 5843 5840 5836 5834 5831 5829 5826 5824 5821 5819 5817 5815 5812 5810 5808 5807 5804 5802 5800 5798 5796 5793 5791 5789 5787 5784 5782 5780 5778 5776 5774 5772
5867 5865 5863 5860 5857 5855 5852 5850 5847 5844 5840 5837 5834 5831 5828 5826 5823 5821 5818 5816 5814 5812 5809 5807 5805 5803 5801 5798 5796 5794 5792 5789 5787 5784 5782 5780 5777 5775 5773 5770 5768 5766 5763
5861 5859 5857 5855 5852 5850 5847 5844 5841 5838 5835 5832 5829 5826 5823 5820 5818 5816 5813 5811 5808 5806 5804 5802 5799 5797 5795 5792 5790 5788 5785 5783 5780 5778 5775 5773 5770 5768 5765 5762 5760 5757 5755
5855 5853 5851 5849 5847 5844 5842 5839 5836 5833 5830 5827 5824 5821 5818 5815 5813 5811 5808 5806 5803 5801 5798 5796 5793 5791 5788 5786 5783 5781 5778 5776 5773 5771 5768 5766 5763 5761 5758 5755 5752 5749 5746
5848 5846 5844 5842 5840 5838 5835 5832 5830 5828 5825 5822 5819 5816 5813 5810 5808 5805 5803 5800 5797 5795 5792 5789 5787 5784 5782 5779 5776 5774 5771 5769 5766 5764 5761 5758 5755 5753 5750 5747 5743 5740 5737
5841 5839 5837 5835 5833 5831 5829 5827 5824 5822 5819 5816 5813 5810 5807 5805 5802 5799 5796 5794 5791 5788 5786 5783 5780 5777 5775 5772 5769 5767 5764 5761 5759 5756 5753 5750 5747 5744 5741 5738 5735 5732 5729
5833 5831 5829 5828 5826 5824 5822 5820 5818 5815 5813 5810 5807 5805 5802 5799 5796 5793 5790 5788 5785 5782 5779 5776 5774 5771 5768 5765 5762 5759 5757 5754 5751 5748 5745 5742 5739 5736 5733 5730 5727 5724 5720
5824 5823 5822 5820 5819 5817 5815 5812 5810 5808 5806 5803 5801 5798 5795 5793 5790 5787 5784 5781 5779 5776 5773 5770 5767 5764 5761 5758 5755 5752 5749 5746 5743 5740 5737 5734 5731 5728 5724 5721 5717 5714 5711
5816 5815 5814 5812 5811 5809 5807 5805 5803 5801 5798 5796 5794 5791 5789 5786 5783 5781 5778 5775 5772 5769 5766 5763 5760 5757 5753 5750 5747 5744 5741 5738 5734 5731 5728 5725 5722 5719 5715 5712 5708 5705 5702
5808 5807 5806 5804 5803 5801 5799 5797 5795 5793 5791 5789 5786 5784 5782 5780 5777 5774 5771 5768 5765 5762 5759 5756 5753 5750 5746 5743 5740 5736 5733 5729 5726 5722 5719 5716 5713 5709 5706 5703 5699 5695 5692
5800 5799 5798 5797 5795 5793 5791 5789 5787 5785 5783 5780 5779 5776 5774 5772 5769 5767 5764 5761 5758 5755 5752 5749 5745 5742 5739 5735 5732 5728 5724 5720 5717 5713 5710 5707 5703 5700 5696 5693 5689 5686 5682
5792 5791 5790 5789 5787 5785 5782 5780 5779 5777 5774 5772 5771 5769 5766 5764 5762 5759 5756 5753 5750 5747 5744 5741 5737 5734 5731 5727 5723 5719 5715 5712 5708 5705 5701 5698 5694 5691 5687 5684 5680 5676 5673
5783 5782 5781 5780 5779 5777 5775 5773 5771 5769 5767 5765 5763 5761 5759 5757 5754 5751 5748 5745 5742 5739 5736 5732 5729 5725 5722 5718 5715 5711 5707 5703 5699 5696 5692 5689 5685 5682 5678 5674 5671 5667 5664
5774 5773 5772 5771 5770 5769 5767 5765 5763 5762 5760 5758 5755 5753 5750 5748 5746 5743 5740 5737 5734 5731 5728 5724 5721 5717 5713 5710 5706 5702 5698 5695 5691 5687 5683 5680 5677 5673 5669 5665 5662 5658 5655
5765 5764 5763 5762 5761 5760 5758 5756 5755 5753 5751 5749 5747 5744 5742 5740 5737 5735 5732 5729 5726 5722 5719 5716 5712 5708 5705 5701 5697 5693 5690 5686 5682 5678 5675 5671 5668 5664 5660 5657 5653 5649 5646
5756 5755 5754 5753 5752 5751 5749 5748 5746 5745 5743 5741 5739 5736 5734 5732 5729 5726 5723 5720 5717 5714 5711 5707 5703 5700 5696 5692 5688 5685 5681 5677 5674 5670 5666 5663 5659 5655 5652 5648 5644 5641 5637
5748 5747 5745 5744 5743 5742 5740 5739 5738 5736 5734 5732 5730 5728 5725 5723 5721 5718 5715 5712 5709 5706 5702 5699 5695 5692 5688 5685 5681 5677 5673 5669 5666 5662 5658 5654 5651 5647 5643 5639 5636 5632 5629
5740 5738 5737 5736 5734 5733 5732 5730 5729 5727 5725 5723 5721 5719 5717 5714 5712 5709 5706 5703 5700 5697 5694 5691 5687 5684 5680 5676 5673 5669 5665 5662 5658 5654 5650 5647 5643 5639 5635 5631 5627 5623 5620